Regional Weather Roundup
Issued by NWS

Home | Current Version | Previous Version | Text Only | Print | Product List | Glossary Off
Versions: 1 2 3 4 5 6 7 8 9 10 11 12 13 14 15 16 17 18 19 20 21 22 23 24 25 26 27 28 29 30 31 32 33 34 35 36 37 38 39 40 41 42 43 44 45 46 47 48 49 50

000
ASUS45 KPSR 260810
RWRAZ

ARIZONA HOURLY REGIONAL WEATHER ROUNDUP
NATIONAL WEATHER SERVICE PHOENIX AZ
100 AM MST WED APR 26 2017

NOTE: FAIR INDICATES FEW OR NO CLOUDS BELOW 12,000 FEET WITH NO
SIGNIFICANT WEATHER AND/OR OBSTRUCTIONS TO VISIBILITY.

AZZ001>003-036-260900-
NORTHWEST ARIZONA

CITY           SKY/WX    TMP DP  RH WIND       PRES   REMARKS
BULLHEAD CITY  CLEAR     70  21  16 CALM      29.81R
KINGMAN        CLEAR     45  20  36 SE5       29.91R
$$

AZZ004>008-015-016-018-260900-
NORTH CENTRAL ARIZONA

CITY           SKY/WX    TMP DP  RH WIND       PRES   REMARKS
GRAND CANYON   CLEAR     28  15  58 CALM      29.99R
WILLIAMS       CLEAR     28  18  64 SE5       29.99R WCI  23
PRESCOTT       CLEAR     46  21  37 NW8       29.96S
FLAGSTAFF      CLEAR     32  16  51 CALM      29.97F
PAYSON         CLEAR     48  18  29 N6        29.95F
PAGE           CLEAR     52  20  28 W6        29.91R
$$

AZZ009>014-017-260900-
NORTHEAST ARIZONA

CITY           SKY/WX    TMP DP  RH WIND       PRES   REMARKS
WINSLOW        CLEAR     42  18  37 S5        29.94S
SAINT JOHNS    MOCLDY    39  27  62 SW6       29.93S WCI  35
WINDOW ROCK    CLEAR     34  22  61 SW5       29.93S WCI  30
SHOW LOW       PTCLDY    36  16  44 NW3       29.97F
$$

AZZ540-542>544-546-548-260900-
GREATER PHOENIX AREA

CITY           SKY/WX    TMP DP  RH WIND       PRES   REMARKS
PHOENIX        CLEAR     70  31  23 SW3       29.77S
BUCKEYE        CLEAR     63  28  27 SW3       29.79S
LUKE AFB       CLEAR     65  33  29 N8        29.78R
DEER VALLEY    CLEAR     70  18  13 N15       29.78S
SCOTTSDALE     CLEAR     70  19  14 N5        29.80S
MESA-GATEWAY   PTCLDY    68  30  24 NW7       29.79S
$$

AZZ539-553-260900-
SOUTHWEST MARICOPA COUNTY AND PINAL COUNTY

CITY           SKY/WX    TMP DP  RH WIND       PRES   REMARKS
CASA GRANDE    PTCLDY    70  28  21 W6        29.80S
GILA BEND      FAIR      70  26  19 W7        29.77F
$$

AZZ503-504-507>509-260900-
SOUTHEAST ARIZONA

CITY           SKY/WX    TMP DP  RH WIND       PRES   REMARKS
TUCSON         PTCLDY    67  35  30 W12       29.87R
DAVIS-MONTHAN  MOCLDY    64  35  33 W7        29.86R
NOGALES        PTCLDY    54  35  48 E5        29.92S
SIERRA VISTA   PTCLDY    58  33  38 W15       29.94S
SAFFORD        CLEAR     62  21  20 NW10      29.80R
$$

AZZ532-260900-
SOUTHWEST ARIZONA

CITY           SKY/WX    TMP DP  RH WIND       PRES   REMARKS
YUMA           MOCLDY    69  48  47 W9        29.79F
$$

CAZ041-043-047-048-061-525>527-560>570-260900-
SOUTHERN CALIFORNIA

CITY           SKY/WX    TMP DP  RH WIND       PRES   REMARKS
DOWNTOWN L.A.  CLEAR     65  49  56 VRB3      29.89S
L.A. AIRPORT   MOCLDY    64  49  57 SE8       29.89S
SAN DIEGO      MOCLDY    62  56  80 SW3       29.93S
BURBANK        PTCLDY    64  44  48 E8        29.90S
ONTARIO        MOCLDY    62  45  53 CALM      29.91R
RIVERSIDE      PTCLDY    59  47  64 CALM      29.91S
PALM SPRINGS   CLEAR     72  42  34 W7        29.84R
EL CENTRO NAS  PTCLDY    66  43  43 W9        29.80F
IMPERIAL       PTCLDY    68  47  46 W10       29.78F
BLYTHE         CLEAR     71  33  24 NW10      29.79S
NEEDLES        PTCLDY    73  17  12 NW12      29.82R
$$

NVZ020-UTZ003-260900-
SOUTHERN NEVADA-UTAH

CITY           SKY/WX    TMP DP  RH WIND       PRES   REMARKS
LAS VEGAS      PTCLDY    64  14  14 SW6       29.86S
SALT LAKE CITY MOCLDY    44  36  73 SE8       29.93S
$$

NMZ009-TXZ055-260900-
NEW MEXICO-WEST TEXAS

CITY           SKY/WX    TMP DP  RH WIND       PRES   REMARKS
ALBUQUERQUE    CLEAR     45  30  55 NW3       29.83R
EL PASO        PTCLDY    65  30  27 NW14G23   29.78R
$$


........................KEY........................
SKY/WX - SKY CONDITION/WEATHER
TMP    - TEMPERATURE IN FAHRENHEIT
DP     - DEW POINT IN FAHRENHEIT
RH     - RELATIVE HUMIDITY IN PERCENT
WIND   - DIRECTION AND SPEED IN MILES PER HOUR (MPH)
VRB    - VARIABLE WIND DIRECTION
PRES   - MEAN SEA LEVEL PRESSURE IN INCHES OF MERCURY
         F - FALLING PRESSURE   R - RISING PRESSURE
         S - STEADY PRESSURE
VSB    - VISIBILITY IN MILES
HX     - HEAT INDEX IN FAHRENHEIT
WCI    - WIND CHILL INDEX IN FAHRENHEIT
TC     - TEMPERATURE IN CELSIUS WHICH IS ALSO KNOWN AS
         TEMPERATURE IN CENTIGRADE
AFB    - AIR FORCE BASE
         LUKE AFB IS LUKE AIR FORCE BASE
         DAVIS-MONTHAN IS DAVIS-MONTHAN AIR FORCE BASE
NAS    - NAVAL AIR STATION
         EL CENTRO NAS IS EL CENTRO NAVAL AIR STATION
N/A    - NOT AVAILABLE




USA.gov is the U.S. government's official web portal to all federal, state and local government web resources and services.